Buoy 46930

sailwx.info

Track history (hours):
 
Tides and Currents Weather Stations Pressure Air Temp Water Temp Dewpoint Dewpoint Depression Visibility Wind Speed Wind Dir Waves Ship Positions

Drifting buoy 46930

Last reported at 2014-Jul-28 06:00 UTC. Time now 2014-Jul-28 10:22 UTC.
Position N 25°50' W 116°45'.

Water temperature 22.9 ° C

Date/timePositionNaut miles runAvg speedWind from/ knotsBaromVisibWave heightAir tempDewpointWater temp
2014-Jul-28 06:00N 25°50' W 116°45'0 0.3 22.9
2014-Jul-28 05:00N 25°50' W 116°46'0 0.4 23.0
2014-Jul-28 04:00N 25°50' W 116°45'1 0.4 23.0
2014-Jul-28 02:00N 25°51' W 116°45'1 0.9 23.2
2014-Jul-28 01:00N 25°52' W 116°45'1 1.0 23.2
2014-Jul-28 00:00N 25°53' W 116°46'1 0.6 23.3
2014-Jul-27 23:00N 25°53' W 116°45'1 0.6 23.4
2014-Jul-27 22:00N 25°54' W 116°45'1 0.9 23.5
2014-Jul-27 21:00N 25°55' W 116°46'2 0.7 23.4
2014-Jul-27 18:00N 25°57' W 116°47'0 0.4 23.1
2014-Jul-27 17:00N 25°57' W 116°47'1 1.4 23.0
2014-Jul-27 16:00N 25°58' W 116°48'1 0.2 22.8
2014-Jul-27 13:00N 25°58' W 116°49'0 0.4 22.8
2014-Jul-27 12:00N 25°59' W 116°49'1 0.3 22.9
2014-Jul-27 09:00N 25°59' W 116°50'0 0.0 23.1
2014-Jul-27 08:00N 25°59' W 116°50'1 0.3 23.2
2014-Jul-27 05:00N 25°60' W 116°50'0 0.3 23.8
2014-Jul-27 04:00N 26°00' W 116°50'0 0.0 23.7
2014-Jul-27 03:00N 26°00' W 116°50'1 0.4 24.0
2014-Jul-27 01:00N 26°01' W 116°50'0 0.0 25.4
2014-Jul-27 00:00N 26°01' W 116°50'0 0.1 26.1
2014-Jul-26 23:00N 26°01' W 116°50'1 0.5 26.6
2014-Jul-26 22:00N 26°01' W 116°49'1 0.6 26.9
2014-Jul-26 21:00N 26°02' W 116°49'1 0.4 26.1
2014-Jul-26 19:00N 26°03' W 116°50'2 0.5 23.9
2014-Jul-26 16:00N 26°04' W 116°50'1 0.8 22.7
2014-Jul-26 15:00N 26°05' W 116°51'1 0.4 22.6
2014-Jul-26 13:00N 26°05' W 116°51'1 0.7 22.6
2014-Jul-26 11:00N 26°06' W 116°52'1 1.4 22.6
2014-Jul-26 10:00N 26°07' W 116°54'0 0.3 22.6
2014-Jul-26 09:00N 26°07' W 116°54'0 0.0 22.7
2014-Jul-26 08:00N 26°07' W 116°54'0 0.1 22.7
2014-Jul-26 06:00N 26°07' W 116°54'0 0.1 22.9
2014-Jul-26 03:00N 26°07' W 116°54'1 0.3 23.4
2014-Jul-26 01:00N 26°08' W 116°55'1 0.9 23.7
2014-Jul-26 00:00N 26°07' W 116°54'0 0.5 23.8
2014-Jul-25 23:00N 26°08' W 116°54'0 0.4 23.8
2014-Jul-25 22:00N 26°08' W 116°54'0 0.2 24.2
2014-Jul-25 21:00N 26°08' W 116°54'0 0.2 23.8
2014-Jul-25 19:00N 26°08' W 116°54'1 0.8 22.9
2014-Jul-25 18:00N 26°09' W 116°54'1 0.7 22.6
2014-Jul-25 17:00N 26°10' W 116°54'1 1.1 22.4
2014-Jul-25 16:00N 26°11' W 116°55'0 0.0 22.3
2014-Jul-25 15:00N 26°11' W 116°55'0 0.3 22.3
2014-Jul-25 14:00N 26°11' W 116°55'0 0.5 22.3
2014-Jul-25 13:00N 26°12' W 116°55'0 0.4 22.3
2014-Jul-25 12:00N 26°12' W 116°55'1 0.7 22.3
2014-Jul-25 11:00N 26°12' W 116°56'0 0.4 22.3
2014-Jul-25 10:00N 26°13' W 116°56'1 0.7 22.3
2014-Jul-25 08:00N 26°13' W 116°58'1 0.3 22.3
2014-Jul-25 04:00N 26°13' W 116°59'0 0.5 22.3
2014-Jul-25 03:00N 26°13' W 116°59'0 0.0 22.3
2014-Jul-25 02:00N 26°13' W 116°59'0 0.1 22.4
2014-Jul-25 00:00N 26°13' W 116°58'0 0.3 22.4
2014-Jul-24 23:00N 26°13' W 116°58'1 0.7 22.4
2014-Jul-24 22:00N 26°13' W 116°58'1 0.9 22.4
2014-Jul-24 21:00N 26°14' W 116°58'0 0.2 22.4
2014-Jul-24 19:00N 26°14' W 116°58'0 0.5 22.3
2014-Jul-24 18:00N 26°14' W 116°57'2 1.0 22.2
2014-Jul-24 16:00N 26°16' W 116°57'0 0.3 22.2
2014-Jul-24 15:00N 26°16' W 116°57'1 0.6 22.2
2014-Jul-24 14:00N 26°17' W 116°57'1 0.3 22.2
2014-Jul-24 11:00N 26°18' W 116°57'1 0.5 22.2
2014-Jul-24 10:00N 26°18' W 116°58'1 1.3 22.2
2014-Jul-24 09:00N 26°19' W 116°58'0 0.0 22.2
2014-Jul-24 08:00N 26°19' W 116°58'1 1.4 22.2
2014-Jul-24 07:00N 26°20' W 116°60'0 0.2 22.2
2014-Jul-24 05:00N 26°20' W 117°00'0 0.3 22.3
2014-Jul-24 04:00N 26°20' W 117°00'0 0.2 22.3
2014-Jul-24 03:00N 26°20' W 117°00'0 0.2 22.3
2014-Jul-24 02:00N 26°20' W 117°00'1 0.4 22.3
2014-Jul-24 00:00N 26°20' W 116°59'0 0.3 22.3
2014-Jul-23 23:00N 26°20' W 116°60'0 0.4 22.3
2014-Jul-23 22:00N 26°21' W 116°59'1 0.8 22.3
2014-Jul-23 21:00N 26°20' W 117°00'2 0.4 22.3
2014-Jul-23 16:00N 26°22' W 116°59'1 0.4 22.2
2014-Jul-23 13:00N 26°24' W 116°59'1 0.8 22.1
2014-Jul-23 12:00N 26°24' W 116°59'1 0.3 22.2
2014-Jul-23 08:00N 26°25' W 116°60'1 1.1 22.2
2014-Jul-23 07:00N 26°26' W 117°01'0 0.0 22.2
2014-Jul-23 06:00N 26°26' W 117°01'1 0.6 22.2
2014-Jul-23 05:00N 26°26' W 117°01'0 0.3 22.2
2014-Jul-23 04:00N 26°26' W 117°01'1 0.2 22.2
2014-Jul-23 00:00N 26°27' W 117°01'0 0.1 22.3
2014-Jul-22 22:00N 26°27' W 117°01'1 0.5 22.3
2014-Jul-22 21:00N 26°27' W 117°02'0 0.2 22.3
2014-Jul-22 20:00N 26°28' W 117°02'0 0.1 22.2
2014-Jul-22 18:00N 26°28' W 117°02'0 0.2 22.2
2014-Jul-22 17:00N 26°28' W 117°02'0 0.0 22.2
2014-Jul-22 16:00N 26°28' W 117°02'1 0.4 22.2
2014-Jul-22 13:00N 26°29' W 117°02'0 0.2 22.2
2014-Jul-22 11:00N 26°29' W 117°02'0 0.3 22.2
2014-Jul-22 10:00N 26°29' W 117°02'1 0.3 22.2
2014-Jul-22 05:00N 26°30' W 117°03'1 0.7 22.2
2014-Jul-22 04:00N 26°31' W 117°03'0 0.0 22.2
2014-Jul-22 03:00N 26°31' W 117°03'0 0.0 22.2
2014-Jul-22 02:00N 26°31' W 117°03'1 0.4 22.3
2014-Jul-21 23:00N 26°31' W 117°04'1 0.6 22.3
2014-Jul-21 22:00N 26°32' W 117°05'0 0.0 22.3
2014-Jul-21 20:00N 26°32' W 117°05'0 0.1 22.3
2014-Jul-21 18:00N 26°32' W 117°05'0 0.5 22.3
2014-Jul-21 17:00N 26°32' W 117°05'0 0.3 22.2
2014-Jul-21 16:00N 26°32' W 117°05'0 0.2 22.2
2014-Jul-21 15:00N 26°32' W 117°06'1 0.2 22.2
2014-Jul-21 12:00N 26°32' W 117°06'1 0.6 22.2
2014-Jul-21 11:00N 26°33' W 117°06'0 0.0 22.2
2014-Jul-21 10:00N 26°33' W 117°06'0 0.0 22.2
2014-Jul-21 09:00N 26°33' W 117°06'2 0.3 22.3
2014-Jul-21 04:00N 26°34' W 117°07'1 0.4 22.4
2014-Jul-21 01:00N 26°35' W 117°09'0 0.4 22.5
2014-Jul-21 00:00N 26°35' W 117°09'1 0.5 22.5
2014-Jul-20 23:00N 26°35' W 117°10'1 0.9 22.6
2014-Jul-20 22:00N 26°35' W 117°11'0 0.1 22.6
2014-Jul-20 20:00N 26°35' W 117°11'1 0.5 22.4
2014-Jul-20 18:00N 26°35' W 117°12'0 0.3 22.2
2014-Jul-20 17:00N 26°35' W 117°12'0 0.2 22.2
2014-Jul-20 16:00N 26°35' W 117°12'0 0.0 22.1
2014-Jul-20 15:00N 26°35' W 117°12'0 0.3 22.1
2014-Jul-20 14:00N 26°35' W 117°12'0 0.5 22.1
2014-Jul-20 13:00N 26°35' W 117°12'0 0.1 22.1
2014-Jul-20 12:00N 26°35' W 117°12'2 0.2 22.1
2014-Jul-20 04:00N 26°37' W 117°13'1 1.3 22.3
2014-Jul-20 03:00N 26°38' W 117°14'1 0.3 22.3
2014-Jul-19 23:00N 26°37' W 117°16'1 1.0 22.5
2014-Jul-19 22:00N 26°38' W 117°16'1 0.4 22.5
2014-Jul-19 20:00N 26°38' W 117°17'0 0.0 22.4
2014-Jul-19 19:00N 26°38' W 117°17'0 0.1 22.2
2014-Jul-19 18:00N 26°38' W 117°17'2 0.3 22.1
2014-Jul-19 13:00N 26°38' W 117°19'0 0.1 22.0
2014-Jul-19 11:00N 26°38' W 117°19'1 0.2 22.0
2014-Jul-19 06:00N 26°38' W 117°19'0 0.3 22.1
2014-Jul-19 05:00N 26°39' W 117°19'0 0.3 22.1
2014-Jul-19 04:00N 26°39' W 117°18'1 0.5 22.1
2014-Jul-19 02:00N 26°40' W 117°19'2 1.7 22.1
2014-Jul-19 01:00N 26°41' W 117°21'0 0.0 22.2
2014-Jul-19 00:00N 26°41' W 117°21'1 0.6 22.2
2014-Jul-18 23:00N 26°41' W 117°21'1 0.4 22.2
2014-Jul-18 21:00N 26°41' W 117°22'1 0.5 22.1
2014-Jul-18 18:00N 26°42' W 117°23'1 0.3 21.9
2014-Jul-18 16:00N 26°42' W 117°24'1 0.4 21.9
2014-Jul-18 13:00N 26°41' W 117°24'0 0.5 21.9
2014-Jul-18 12:00N 26°41' W 117°25'0 0.2 21.9
2014-Jul-18 11:00N 26°41' W 117°25'1 0.3 21.9
2014-Jul-18 09:00N 26°41' W 117°24'0 0.0 21.9
2014-Jul-18 08:00N 26°41' W 117°24'1 0.7 21.9
2014-Jul-18 06:00N 26°42' W 117°23'   21.9
Track history (hours):
 
Tides and Currents Weather Stations Pressure Air Temp Water Temp Dewpoint Dewpoint Depression Visibility Wind Speed Wind Dir Waves Ship Positions

Drifting buoy 46930

Last reported at 2014-Jul-28 06:00 UTC. Time now 2014-Jul-28 10:22 UTC.
Position N 25°50' W 116°45'.

Water temperature 22.9 ° C

Date/timePositionNaut miles runAvg speedWind from/ knotsBaromVisibWave heightAir tempDewpointWater temp
2014-Jul-28 06:00N 25°50' W 116°45'0 0.3 22.9
2014-Jul-28 05:00N 25°50' W 116°46'0 0.4 23.0
2014-Jul-28 04:00N 25°50' W 116°45'1 0.4 23.0
2014-Jul-28 02:00N 25°51' W 116°45'1 0.9 23.2
2014-Jul-28 01:00N 25°52' W 116°45'1 1.0 23.2
2014-Jul-28 00:00N 25°53' W 116°46'1 0.6 23.3
2014-Jul-27 23:00N 25°53' W 116°45'1 0.6 23.4
2014-Jul-27 22:00N 25°54' W 116°45'1 0.9 23.5
2014-Jul-27 21:00N 25°55' W 116°46'2 0.7 23.4
2014-Jul-27 18:00N 25°57' W 116°47'0 0.4 23.1
2014-Jul-27 17:00N 25°57' W 116°47'1 1.4 23.0
2014-Jul-27 16:00N 25°58' W 116°48'1 0.2 22.8
2014-Jul-27 13:00N 25°58' W 116°49'0 0.4 22.8
2014-Jul-27 12:00N 25°59' W 116°49'1 0.3 22.9
2014-Jul-27 09:00N 25°59' W 116°50'0 0.0 23.1
2014-Jul-27 08:00N 25°59' W 116°50'1 0.3 23.2
2014-Jul-27 05:00N 25°60' W 116°50'0 0.3 23.8
2014-Jul-27 04:00N 26°00' W 116°50'0 0.0 23.7
2014-Jul-27 03:00N 26°00' W 116°50'1 0.4 24.0
2014-Jul-27 01:00N 26°01' W 116°50'0 0.0 25.4
2014-Jul-27 00:00N 26°01' W 116°50'0 0.1 26.1
2014-Jul-26 23:00N 26°01' W 116°50'1 0.5 26.6
2014-Jul-26 22:00N 26°01' W 116°49'1 0.6 26.9
2014-Jul-26 21:00N 26°02' W 116°49'1 0.4 26.1
2014-Jul-26 19:00N 26°03' W 116°50'2 0.5 23.9
2014-Jul-26 16:00N 26°04' W 116°50'1 0.8 22.7
2014-Jul-26 15:00N 26°05' W 116°51'1 0.4 22.6
2014-Jul-26 13:00N 26°05' W 116°51'1 0.7 22.6
2014-Jul-26 11:00N 26°06' W 116°52'1 1.4 22.6
2014-Jul-26 10:00N 26°07' W 116°54'0 0.3 22.6
2014-Jul-26 09:00N 26°07' W 116°54'0 0.0 22.7
2014-Jul-26 08:00N 26°07' W 116°54'0 0.1 22.7
2014-Jul-26 06:00N 26°07' W 116°54'0 0.1 22.9
2014-Jul-26 03:00N 26°07' W 116°54'1 0.3 23.4
2014-Jul-26 01:00N 26°08' W 116°55'1 0.9 23.7
2014-Jul-26 00:00N 26°07' W 116°54'0 0.5 23.8
2014-Jul-25 23:00N 26°08' W 116°54'0 0.4 23.8
2014-Jul-25 22:00N 26°08' W 116°54'0 0.2 24.2
2014-Jul-25 21:00N 26°08' W 116°54'0 0.2 23.8
2014-Jul-25 19:00N 26°08' W 116°54'1 0.8 22.9
2014-Jul-25 18:00N 26°09' W 116°54'1 0.7 22.6
2014-Jul-25 17:00N 26°10' W 116°54'1 1.1 22.4
2014-Jul-25 16:00N 26°11' W 116°55'0 0.0 22.3
2014-Jul-25 15:00N 26°11' W 116°55'0 0.3 22.3
2014-Jul-25 14:00N 26°11' W 116°55'0 0.5 22.3
2014-Jul-25 13:00N 26°12' W 116°55'0 0.4 22.3
2014-Jul-25 12:00N 26°12' W 116°55'1 0.7 22.3
2014-Jul-25 11:00N 26°12' W 116°56'0 0.4 22.3
2014-Jul-25 10:00N 26°13' W 116°56'1 0.7 22.3
2014-Jul-25 08:00N 26°13' W 116°58'1 0.3 22.3
2014-Jul-25 04:00N 26°13' W 116°59'0 0.5 22.3
2014-Jul-25 03:00N 26°13' W 116°59'0 0.0 22.3
2014-Jul-25 02:00N 26°13' W 116°59'0 0.1 22.4
2014-Jul-25 00:00N 26°13' W 116°58'0 0.3 22.4
2014-Jul-24 23:00N 26°13' W 116°58'1 0.7 22.4
2014-Jul-24 22:00N 26°13' W 116°58'1 0.9 22.4
2014-Jul-24 21:00N 26°14' W 116°58'0 0.2 22.4
2014-Jul-24 19:00N 26°14' W 116°58'0 0.5 22.3
2014-Jul-24 18:00N 26°14' W 116°57'2 1.0 22.2
2014-Jul-24 16:00N 26°16' W 116°57'0 0.3 22.2
2014-Jul-24 15:00N 26°16' W 116°57'1 0.6 22.2
2014-Jul-24 14:00N 26°17' W 116°57'1 0.3 22.2
2014-Jul-24 11:00N 26°18' W 116°57'1 0.5 22.2
2014-Jul-24 10:00N 26°18' W 116°58'1 1.3 22.2
2014-Jul-24 09:00N 26°19' W 116°58'0 0.0 22.2
2014-Jul-24 08:00N 26°19' W 116°58'1 1.4 22.2
2014-Jul-24 07:00N 26°20' W 116°60'0 0.2 22.2
2014-Jul-24 05:00N 26°20' W 117°00'0 0.3 22.3
2014-Jul-24 04:00N 26°20' W 117°00'0 0.2 22.3
2014-Jul-24 03:00N 26°20' W 117°00'0 0.2 22.3
2014-Jul-24 02:00N 26°20' W 117°00'1 0.4 22.3
2014-Jul-24 00:00N 26°20' W 116°59'0 0.3 22.3
2014-Jul-23 23:00N 26°20' W 116°60'0 0.4 22.3
2014-Jul-23 22:00N 26°21' W 116°59'1 0.8 22.3
2014-Jul-23 21:00N 26°20' W 117°00'2 0.4 22.3
2014-Jul-23 16:00N 26°22' W 116°59'1 0.4 22.2
2014-Jul-23 13:00N 26°24' W 116°59'1 0.8 22.1
2014-Jul-23 12:00N 26°24' W 116°59'1 0.3 22.2
2014-Jul-23 08:00N 26°25' W 116°60'1 1.1 22.2
2014-Jul-23 07:00N 26°26' W 117°01'0 0.0 22.2
2014-Jul-23 06:00N 26°26' W 117°01'1 0.6 22.2
2014-Jul-23 05:00N 26°26' W 117°01'0 0.3 22.2
2014-Jul-23 04:00N 26°26' W 117°01'1 0.2 22.2
2014-Jul-23 00:00N 26°27' W 117°01'0 0.1 22.3
2014-Jul-22 22:00N 26°27' W 117°01'1 0.5 22.3
2014-Jul-22 21:00N 26°27' W 117°02'0 0.2 22.3
2014-Jul-22 20:00N 26°28' W 117°02'0 0.1 22.2
2014-Jul-22 18:00N 26°28' W 117°02'0 0.2 22.2
2014-Jul-22 17:00N 26°28' W 117°02'0 0.0 22.2
2014-Jul-22 16:00N 26°28' W 117°02'1 0.4 22.2
2014-Jul-22 13:00N 26°29' W 117°02'0 0.2 22.2
2014-Jul-22 11:00N 26°29' W 117°02'0 0.3 22.2
2014-Jul-22 10:00N 26°29' W 117°02'1 0.3 22.2
2014-Jul-22 05:00N 26°30' W 117°03'1 0.7 22.2
2014-Jul-22 04:00N 26°31' W 117°03'0 0.0 22.2
2014-Jul-22 03:00N 26°31' W 117°03'0 0.0 22.2
2014-Jul-22 02:00N 26°31' W 117°03'1 0.4 22.3
2014-Jul-21 23:00N 26°31' W 117°04'1 0.6 22.3
2014-Jul-21 22:00N 26°32' W 117°05'0 0.0 22.3
2014-Jul-21 20:00N 26°32' W 117°05'0 0.1 22.3
2014-Jul-21 18:00N 26°32' W 117°05'0 0.5 22.3
2014-Jul-21 17:00N 26°32' W 117°05'0 0.3 22.2
2014-Jul-21 16:00N 26°32' W 117°05'0 0.2 22.2
2014-Jul-21 15:00N 26°32' W 117°06'1 0.2 22.2
2014-Jul-21 12:00N 26°32' W 117°06'1 0.6 22.2
2014-Jul-21 11:00N 26°33' W 117°06'0 0.0 22.2
2014-Jul-21 10:00N 26°33' W 117°06'0 0.0 22.2
2014-Jul-21 09:00N 26°33' W 117°06'2 0.3 22.3
2014-Jul-21 04:00N 26°34' W 117°07'1 0.4 22.4
2014-Jul-21 01:00N 26°35' W 117°09'0 0.4 22.5
2014-Jul-21 00:00N 26°35' W 117°09'1 0.5 22.5
2014-Jul-20 23:00N 26°35' W 117°10'1 0.9 22.6
2014-Jul-20 22:00N 26°35' W 117°11'0 0.1 22.6
2014-Jul-20 20:00N 26°35' W 117°11'1 0.5 22.4
2014-Jul-20 18:00N 26°35' W 117°12'0 0.3 22.2
2014-Jul-20 17:00N 26°35' W 117°12'0 0.2 22.2
2014-Jul-20 16:00N 26°35' W 117°12'0 0.0 22.1
2014-Jul-20 15:00N 26°35' W 117°12'0 0.3 22.1
2014-Jul-20 14:00N 26°35' W 117°12'0 0.5 22.1
2014-Jul-20 13:00N 26°35' W 117°12'0 0.1 22.1
2014-Jul-20 12:00N 26°35' W 117°12'2 0.2 22.1
2014-Jul-20 04:00N 26°37' W 117°13'1 1.3 22.3
2014-Jul-20 03:00N 26°38' W 117°14'1 0.3 22.3
2014-Jul-19 23:00N 26°37' W 117°16'1 1.0 22.5
2014-Jul-19 22:00N 26°38' W 117°16'1 0.4 22.5
2014-Jul-19 20:00N 26°38' W 117°17'0 0.0 22.4
2014-Jul-19 19:00N 26°38' W 117°17'0 0.1 22.2
2014-Jul-19 18:00N 26°38' W 117°17'2 0.3 22.1
2014-Jul-19 13:00N 26°38' W 117°19'0 0.1 22.0
2014-Jul-19 11:00N 26°38' W 117°19'1 0.2 22.0
2014-Jul-19 06:00N 26°38' W 117°19'0 0.3 22.1
2014-Jul-19 05:00N 26°39' W 117°19'0 0.3 22.1
2014-Jul-19 04:00N 26°39' W 117°18'1 0.5 22.1
2014-Jul-19 02:00N 26°40' W 117°19'2 1.7 22.1
2014-Jul-19 01:00N 26°41' W 117°21'0 0.0 22.2
2014-Jul-19 00:00N 26°41' W 117°21'1 0.6 22.2
2014-Jul-18 23:00N 26°41' W 117°21'1 0.4 22.2
2014-Jul-18 21:00N 26°41' W 117°22'1 0.5 22.1
2014-Jul-18 18:00N 26°42' W 117°23'1 0.3 21.9
2014-Jul-18 16:00N 26°42' W 117°24'1 0.4 21.9
2014-Jul-18 13:00N 26°41' W 117°24'0 0.5 21.9
2014-Jul-18 12:00N 26°41' W 117°25'0 0.2 21.9
2014-Jul-18 11:00N 26°41' W 117°25'1 0.3 21.9
2014-Jul-18 09:00N 26°41' W 117°24'0 0.0 21.9
2014-Jul-18 08:00N 26°41' W 117°24'1 0.7 21.9
2014-Jul-18 06:00N 26°42' W 117°23'   21.9

Dump ship's entire track history